| time (UTC) | temp F | wind direction | speed MPH | gust MPH | rain 1hr in | rain 24hr in | rain mn in | humidity % | barometer mb |
| 20260506214519 | 55 | 288 | 0.0 | 2.0 | 0.00 | 0.01 | 0.00 | 55 | 1012.9 |
| 20260506213022 | 55 | 305 | 1.0 | 3.0 | 0.00 | 0.01 | 0.00 | 55 | 1012.7 |
| 20260506211530 | 55 | 300 | 0.0 | 2.0 | 0.00 | 0.01 | 0.00 | 54 | 1012.6 |
| 20260506210033 | 55 | 288 | 1.0 | 3.0 | 0.00 | 0.01 | 0.00 | 55 | 1012.7 |
| 20260506204516 | 55 | 117 | 0.0 | 2.0 | 0.00 | 0.01 | 0.00 | 54 | 1012.5 |
| 20260506203004 | 56 | 304 | 1.0 | 4.0 | 0.00 | 0.01 | 0.00 | 56 | 1012.3 |
| 20260506201511 | 56 | 317 | 0.0 | 3.0 | 0.00 | 0.01 | 0.00 | 56 | 1012.3 |
| 20260506200007 | 55 | 309 | 0.0 | 3.0 | 0.00 | 0.01 | 0.00 | 57 | 1012.3 |
| 20260506194512 | 55 | 269 | 0.0 | 2.0 | 0.00 | 0.01 | 0.00 | 55 | 1012.4 |
| 20260506193024 | 55 | 315 | 1.0 | 3.0 | 0.00 | 0.01 | 0.00 | 56 | 1012.5 |
| 20260506191504 | 56 | 299 | 1.0 | 3.0 | 0.00 | 0.01 | 0.00 | 56 | 1012.4 |
| 20260506190012 | 58 | 335 | 2.0 | 6.0 | 0.00 | 0.01 | 0.00 | 56 | 1012.0 |
| 20260506184520 | 58 | 301 | 1.0 | 3.0 | 0.00 | 0.01 | 0.00 | 52 | 1012.2 |
| 20260506183016 | 58 | 304 | 1.0 | 3.0 | 0.00 | 0.01 | 0.00 | 54 | 1012.2 |
| 20260506181522 | 58 | 323 | 1.0 | 4.0 | 0.00 | 0.01 | 0.00 | 53 | 1012.3 |
| 20260506180007 | 58 | 305 | 1.0 | 3.0 | 0.00 | 0.01 | 0.00 | 53 | 1012.3 |
| 20260506174521 | 58 | 299 | 1.0 | 3.0 | 0.00 | 0.01 | 0.00 | 54 | 1012.3 |
| 20260506173017 | 59 | 273 | 1.0 | 5.0 | 0.00 | 0.01 | 0.00 | 55 | 1012.3 |
| 20260506171534 | 58 | 315 | 0.0 | 3.0 | 0.00 | 0.01 | 0.00 | 59 | 1012.3 |
| 20260506170005 | 57 | 276 | 0.0 | 3.0 | 0.00 | 0.01 | 0.00 | 59 | 1012.3 |
| 20260506164507 | 56 | 114 | 1.0 | 3.0 | 0.00 | 0.01 | 0.00 | 59 | 1012.5 |
| 20260506163016 | 56 | 303 | 1.0 | 3.0 | 0.00 | 0.01 | 0.00 | 65 | 1012.6 |
| 20260506161520 | 54 | 298 | 1.0 | 4.0 | 0.00 | 0.01 | 0.00 | 64 | 1012.5 |
| 20260506160024 | 54 | 296 | 1.0 | 2.0 | 0.00 | 0.01 | 0.00 | 66 | 1012.1 |
| 20260506154511 | 53 | 300 | 0.0 | 2.0 | 0.00 | 0.01 | 0.00 | 67 | 1012.1 |
| 20260506153012 | 53 | 101 | 1.0 | 4.0 | 0.00 | 0.01 | 0.00 | 70 | 1011.8 |
| 20260506151523 | 52 | 82 | 0.0 | 4.0 | 0.00 | 0.01 | 0.00 | 68 | 1011.8 |
| 20260506150027 | 51 | 296 | 1.0 | 2.0 | 0.00 | 0.01 | 0.00 | 73 | 1011.6 |
| 20260506144528 | 50 | 308 | 0.0 | 2.0 | 0.00 | 0.01 | 0.00 | 75 | 1011.8 |
| 20260506143011 | 50 | 290 | 0.0 | 4.0 | 0.00 | 0.01 | 0.00 | 74 | 1011.4 |
| 20260506141517 | 49 | 98 | 1.0 | 3.0 | 0.00 | 0.01 | 0.00 | 73 | 1011.2 |
| 20260506140027 | 48 | 332 | 0.0 | 2.0 | 0.00 | 0.01 | 0.00 | 78 | 1010.9 |
| 20260506134528 | 48 | 103 | 1.0 | 4.0 | 0.00 | 0.01 | 0.00 | 79 | 1011.0 |
| 20260506133030 | 47 | 123 | 0.0 | 2.0 | 0.00 | 0.01 | 0.00 | 85 | 1010.6 |
| 20260506131517 | 46 | 271 | 0.0 | 2.0 | 0.00 | 0.01 | 0.00 | 87 | 1010.8 |
| 20260506130022 | 46 | 319 | 0.0 | 2.0 | 0.00 | 0.01 | 0.00 | 88 | 1010.8 |
| 20260506124530 | 46 | 320 | 0.0 | 2.0 | 0.00 | 0.01 | 0.00 | 88 | 1010.6 |
| 20260506123028 | 45 | 314 | 0.0 | 2.0 | 0.00 | 0.01 | 0.00 | 89 | 1010.1 |
| 20260506121514 | 45 | 90 | 0.0 | 0.0 | 0.00 | 0.01 | 0.00 | 89 | 1009.7 |
| 20260506120021 | 45 | 78 | 0.0 | 2.0 | 0.00 | 0.01 | 0.00 | 87 | 1009.8 |
| 20260506114534 | 45 | 351 | 0.0 | 2.0 | 0.00 | 0.01 | 0.00 | 89 | 1009.9 |
| 20260506113007 | 45 | 306 | 0.0 | 2.0 | 0.00 | 0.01 | 0.00 | 91 | 1009.2 |
| 20260506111511 | 45 | 96 | 0.0 | 2.0 | 0.00 | 0.01 | 0.00 | 91 | 1008.7 |
| 20260506110020 | 45 | 129 | 0.0 | 2.0 | 0.00 | 0.01 | 0.00 | 91 | 1008.6 |
| 20260506104505 | 45 | 97 | 0.0 | 3.0 | 0.00 | 0.01 | 0.00 | 91 | 1008.7 |
| 20260506103006 | 45 | 113 | 1.0 | 3.0 | 0.00 | 0.01 | 0.00 | 91 | 1008.5 |
| 20260506101508 | 45 | 311 | 0.0 | 2.0 | 0.00 | 0.01 | 0.00 | 92 | 1008.8 |
| 20260506100022 | 45 | 111 | 0.0 | 2.0 | 0.00 | 0.01 | 0.00 | 92 | 1007.4 |
| 20260506094519 | 45 | 326 | 0.0 | 2.0 | 0.00 | 0.01 | 0.00 | 92 | 1007.5 |
| 20260506093003 | 45 | 122 | 0.0 | 2.0 | 0.00 | 0.01 | 0.00 | 91 | 1006.9 |
| 20260506091508 | 45 | 126 | 0.0 | 3.0 | 0.00 | 0.01 | 0.00 | 92 | 1007.6 |
| 20260506090012 | 45 | 110 | 1.0 | 7.0 | 0.00 | 0.01 | 0.00 | 91 | 1007.4 |
| 20260506084520 | 45 | 327 | 1.0 | 6.0 | 0.00 | 0.01 | 0.00 | 91 | 1007.8 |
| 20260506083024 | 46 | 101 | 1.0 | 4.0 | 0.00 | 0.01 | 0.00 | 91 | 1007.7 |
| 20260506081505 | 46 | 73 | 0.0 | 2.0 | 0.00 | 0.01 | 0.00 | 92 | 1007.6 |
| 20260506073022 | 46 | 113 | 1.0 | 4.0 | 0.00 | 0.01 | 0.00 | 92 | 1007.0 |
| 20260506071526 | 46 | 144 | 1.0 | 3.0 | 0.00 | 0.01 | 0.00 | 91 | 1007.1 |
| 20260506061524 | 47 | 352 | 0.0 | 6.0 | 0.00 | 0.01 | 0.00 | 91 | 1007.3 |
| 20260506044520 | 48 | 107 | 0.0 | 2.0 | 0.00 | 0.01 | 0.00 | 91 | 1007.8 |
| 20260506043016 | 48 | 126 | 0.0 | 2.0 | 0.00 | 0.01 | 0.00 | 91 | 1007.5 |
| 20260506041519 | 49 | 132 | 0.0 | 2.0 | 0.00 | 0.01 | 0.00 | 91 | 1007.6 |
| 20260506040025 | 49 | 63 | 0.0 | 2.0 | 0.00 | 0.01 | 0.00 | 91 | 1007.6 |
| 20260506034527 | 49 | 113 | 0.0 | 6.0 | 0.00 | 0.01 | 0.01 | 90 | 1007.8 |
| 20260506033015 | 50 | 222 | 0.0 | 2.0 | 0.00 | 0.01 | 0.01 | 91 | 1008.0 |
| 20260506031529 | 50 | 108 | 0.0 | 2.0 | 0.00 | 0.01 | 0.01 | 91 | 1008.3 |
| 20260506030045 | 50 | 92 | 0.0 | 7.0 | 0.00 | 0.01 | 0.01 | 90 | 1008.6 |
| 20260506024531 | 51 | 119 | 1.0 | 3.0 | 0.00 | 0.01 | 0.01 | 90 | 1008.5 |
| 20260506023030 | 52 | 238 | 0.0 | 4.0 | 0.00 | 0.01 | 0.01 | 89 | 1008.3 |
| 20260506021520 | 53 | 302 | 0.0 | 5.0 | 0.00 | 0.01 | 0.01 | 88 | 1008.3 |
| 20260506020025 | 56 | 298 | 2.0 | 3.0 | 0.00 | 0.01 | 0.01 | 86 | 1008.3 |
| 20260506014525 | 58 | 253 | 1.0 | 2.0 | 0.00 | 0.01 | 0.01 | 91 | 1008.0 |
| 20260506013009 | 58 | 261 | 1.0 | 1.0 | 0.00 | 0.01 | 0.01 | 92 | 1007.7 |
| 20260506011517 | 59 | 233 | 0.0 | 1.0 | 0.00 | 0.01 | 0.01 | 92 | 1007.4 |
| 20260506010024 | 59 | 200 | 0.0 | 2.0 | 0.01 | 0.01 | 0.01 | 93 | 1007.2 |
| 20260506004509 | 58 | 196 | 0.0 | 2.0 | 0.01 | 0.01 | 0.01 | 92 | 1007.1 |
| 20260506003006 | 58 | 244 | 0.0 | 2.0 | 0.01 | 0.01 | 0.01 | 92 | 1007.4 |
| 20260506001512 | 58 | 244 | 0.0 | 2.0 | 0.01 | 0.01 | 0.01 | 92 | 1007.4 |
| 20260506000024 | 58 | 259 | 0.0 | 2.0 | 0.00 | 0.00 | 0.00 | 92 | 1007.4 |
| 20260505234504 | 58 | 227 | 1.0 | 2.0 | 0.00 | 0.00 | 0.00 | 91 | 1007.3 |
| 20260505233008 | 59 | 272 | 0.0 | 2.0 | 0.00 | 0.00 | 0.00 | 91 | 1007.4 |
| 20260505231520 | 59 | 261 | 0.0 | 2.0 | 0.00 | 0.00 | 0.00 | 91 | 1007.7 |
| 20260505230014 | 59 | 262 | 0.0 | 0.0 | 0.00 | 0.00 | 0.00 | 91 | 1007.9 |
| 20260505224521 | 59 | 262 | 0.0 | 2.0 | 0.00 | 0.00 | 0.00 | 91 | 1008.0 |
| 20260505223004 | 59 | 262 | 0.0 | 2.0 | 0.00 | 0.00 | 0.00 | 90 | 1008.0 |
| 20260505221508 | 59 | 261 | 1.0 | 2.0 | 0.00 | 0.00 | 0.00 | 90 | 1008.0 |
| 20260505220013 | 59 | 289 | 1.0 | 2.0 | 0.00 | 0.00 | 0.00 | 90 | 1008.1 |